Montpellier, France

4:06 PM CET on March 24, 2017 (GMT +0100)
Montpellier / Mediterranee

Weather History for LFMT - June, 2013

Change the Weather History Date:

Friday, June 28, 2013

  Actual Average Record
Temperature  
Mean Temperature 70 °F -  
Max Temperature 80 °F 81 °F 93 °F (2008)
Min Temperature 60 °F 65 °F 51 °F (1997)
Cooling Degree Days 5    
Growing Degree Days 20 (Base 50)    
Moisture  
Dew Point 47 °F    
Average Humidity 45    
Maximum Humidity 60    
Minimum Humidity 21    
Precipitation  
Precipitation 0.00 in - - ()
Sea Level Pressure  
Sea Level Pressure 30.15 in    
Wind  
Wind Speed 11 mph ()    
Max Wind Speed 23 mph    
Max Gust Speed 31 mph    
Visibility 6.2 miles    
Events      
Averages and records for this station are not official NWS values.
T = Trace of Precipitation, MM = Missing Value Source: Averaged Metar Reports

Daily Weather History Graph

Daily Weather History Graph

Search for Another Location

Airport or City:

Trip Planner

Search our weather history database for the weather conditions in past years. The results will help you decide how hot, cold, wet, or windy it might be!

Date:

Astronomy

Jun. 28, 2013 Rise Set
Actual Time 6:05 AM CEST 9:29 PM CEST
Civil Twilight 5:29 AM CEST 10:05 PM CEST
Nautical Twilight 4:42 AM CEST 10:52 PM CEST
Astronomical Twilight 3:43 AM CEST 11:50 PM CEST
Moon 12:07 AM CEST (6/28) 12:07 PM CEST (6/28)
Length of Visible Light 16h 35m
Length of Day
15h 24m
Waning Gibbous, 69% of the Moon is Illuminated
Jun 28
Waning Gibbous
Jun 30
Last Quarter
Jul 8
New
Jul 16
First Quarter
Jul 22
Full

Hourly Weather History & Observations

Time (CEST) Temp. Dew Point Humidity Pressure Visibility Wind Dir Wind Speed Gust Speed Precip Events Conditions
12:00 AM 66.2 °F 42.8 °F 43% 30.18 in - North 5.8 mph - N/A   Clear
1:00 AM 64.4 °F 44.6 °F 49% 30.18 in - NNW 10.4 mph - N/A   Clear
1:30 AM 64.4 °F 44.6 °F 49% 30.18 in 6.2 mi NNW 6.9 mph - N/A   Unknown
2:00 AM 65 °F 44 °F 36% 30.20 in 37 mi NW 8.1 mph - -   Clear
2:00 AM 64.4 °F 44.6 °F 49% 30.18 in 6.2 mi NW 8.1 mph - N/A   Unknown
2:30 AM 64.4 °F 44.6 °F 49% 30.18 in 6.2 mi NW 8.1 mph - N/A   Unknown
3:00 AM 64.4 °F 42.8 °F 45% 30.15 in 6.2 mi WNW 10.4 mph - N/A   Unknown
3:30 AM 64.4 °F 42.8 °F 45% 30.15 in 6.2 mi NW 8.1 mph - N/A   Unknown
4:00 AM 62.6 °F 44.6 °F 52% 30.15 in 6.2 mi NNW 9.2 mph - N/A   Unknown
4:30 AM 62.6 °F 44.6 °F 52% 30.15 in 6.2 mi NNW 9.2 mph - N/A   Unknown
5:00 AM 62.6 °F 44.6 °F 52% 30.15 in - NNW 5.8 mph - N/A   Clear
5:30 AM 62.6 °F 44.6 °F 52% 30.15 in - WNW 3.5 mph - N/A   Clear
6:00 AM 62.6 °F 44.6 °F 52% 30.15 in - WNW 3.5 mph - N/A   Clear
6:30 AM 60.8 °F 44.6 °F 55% 30.15 in - WNW 4.6 mph - N/A   Clear
7:00 AM 60.8 °F 46.4 °F 59% 30.15 in - West 5.8 mph - N/A   Clear
7:30 AM 60.8 °F 46.4 °F 59% 30.15 in - SSW 4.6 mph - N/A   Clear
8:00 AM 62 °F 47 °F 48% 30.17 in 31 mi West 3.5 mph - -   Mostly Cloudy
8:00 AM 60.8 °F 46.4 °F 59% 30.15 in - West 3.5 mph - N/A   Clear
8:30 AM 64.4 °F 48.2 °F 56% 30.15 in - West 9.2 mph - N/A   Clear
9:00 AM 66.2 °F 48.2 °F 52% 30.15 in - West 6.9 mph - N/A   Clear
10:00 AM 69.8 °F 46.4 °F 43% 30.15 in - WNW 15.0 mph - N/A   Clear
11:00 AM 73.4 °F 48.2 °F 41% 30.15 in - NW 19.6 mph 31.1 mph N/A   Clear
11:30 AM 73.4 °F 48.2 °F 41% 30.15 in - WNW 20.7 mph - N/A   Clear
12:00 PM 75.2 °F 46.4 °F 36% 30.12 in - NW 20.7 mph - N/A   Clear
12:30 PM 77.0 °F 46.4 °F 34% 30.12 in - NW 23.0 mph - N/A   Clear
1:39 PM 77.0 °F 44.6 °F 32% 30.12 in - NW 18.4 mph - N/A   Clear
2:00 PM 78 °F 45 °F 21% 30.13 in 25 mi WNW 20.7 mph - -   Clear
2:00 PM 78.8 °F 44.6 °F 30% 30.12 in - WNW 20.7 mph - N/A   Clear
2:30 PM 78.8 °F 46.4 °F 32% 30.12 in - NW 20.7 mph - N/A   Clear
3:30 PM 77.0 °F 44.6 °F 32% 30.12 in - NW 17.3 mph - N/A   Clear
4:00 PM 78.8 °F 44.6 °F 30% 30.12 in - NW 19.6 mph - N/A   Clear
4:30 PM 78.8 °F 46.4 °F 32% 30.12 in - NW 23.0 mph - N/A   Clear
5:00 PM 77.0 °F 46.4 °F 34% 30.12 in - WNW 21.9 mph - N/A   Clear
5:30 PM 75.2 °F 46.4 °F 36% 30.12 in - WNW 21.9 mph - N/A   Clear
6:00 PM 75.2 °F 48.2 °F 38% 30.12 in - WNW 21.9 mph - N/A   Clear
6:30 PM 75.2 °F 48.2 °F 38% 30.12 in - WNW 21.9 mph - N/A   Clear
7:00 PM 75.2 °F 48.2 °F 38% 30.12 in - NW 21.9 mph - N/A   Clear
7:30 PM 73.4 °F 50.0 °F 44% 30.12 in - NW 23.0 mph - N/A   Clear
8:00 PM 72 °F 49 °F 33% 30.15 in 25 mi NW 21.9 mph - -   Scattered Clouds
8:00 PM 73.4 °F 48.2 °F 41% 30.15 in - NW 20.7 mph - N/A   Clear
8:30 PM 71.6 °F 50.0 °F 46% 30.15 in - NW 17.3 mph - N/A   Clear
9:00 PM 69.8 °F 50.0 °F 49% 30.15 in - NW 18.4 mph - N/A   Clear
9:30 PM 68.0 °F 50.0 °F 52% 30.15 in - NW 16.1 mph - N/A   Clear
10:00 PM 68.0 °F 50.0 °F 52% 30.18 in - WNW 15.0 mph - N/A   Clear
10:30 PM 68.0 °F 51.8 °F 56% 30.18 in - WNW 16.1 mph - N/A   Clear
11:00 PM 66.2 °F 51.8 °F 60% 30.21 in - WNW 12.7 mph - N/A   Clear
11:30 PM 66.2 °F 51.8 °F 60% 30.21 in - NW 10.4 mph - N/A   Clear